Content
SEND FEEDBACK

Daily
Averages
Monthly
Summary
United States of America

LEXINGTON, MISSISSIPPI


Home > North America > United States > Mississippi
Elevation: 279 feet     Latitude: 33 08N     Longitude: 090 04W

WEATHER
 
SELECT A DAY
Number of Records: 203,404;   Date Range: 1/1/95 - 7/20/14
 
SHARE

PRINT THIS DATA

[ ← Previous Day ]
WEATHER ALMANAC - JANUARY 31, 2013
[ Next Day → ]
[ °C ]   °F
Weather ElementAverageHighLow
Temperature44 °F55 °F (2:53 pm)30 °F (6:53 am)
Dewpoint30.9 °F34 °F (1:53 pm)28.9 °F (4:53 am)
Humidity63.2 %96 % (6:53 am)38 % (2:53 pm)
Barometer30.18 in30.24 in (9:53 am)30.11 in (1:53 am)
Wind Speed6.9 mph12.7 mph (1:53 pm)
Wind Gust21.9 mph (3:53 pm)
Weather ElementAverage
Visibility10 mi
Wind DirectionSSW (193.3 °)

Weather ElementTotal
Precipitation---
Heating Degree Days22.5 (Base 65)
Averaged from 21 records on January 31, 2013
WEATHER CONDITIONS BREAKOUT
WIND DIRECTION BREAKOUT
WEATHER BY HOUR - JANUARY 31, 2013
[ °C ]   °F
Local TimeTemperatureDewpointHumidityBarometerVisibilityWind DirectionWind SpeedGust SpeedPrecipitationEventsConditions
1:53 AM37.9 °F30.0 °F73 %30.11 in10.0 miCalmClear
2:53 AM36.0 °F30.0 °F79 %30.12 in10.0 miSW (230°)4.6 mphClear
3:53 AM35.1 °F30.0 °F82 %30.14 in10.0 miSW (230°)3.5 mphClear
4:53 AM32.0 °F28.9 °F88 %30.16 in10.0 miSSW (210°)3.5 mphClear
5:53 AM30.9 °F28.9 °F92 %30.17 in10.0 miSouth (190°)3.5 mphClear
6:53 AM30.0 °F28.9 °F96 %30.18 in10.0 miCalmClear
7:53 AM34.0 °F32.0 °F92 %30.19 in10.0 miCalmClear
9:53 AM45.0 °F30.9 °F58 %30.24 in10.0 miWSW (240°)8.1 mphClear
10:53 AM48.9 °F30.0 °F48 %30.24 in10.0 miWest (260°)8.1 mphClear
11:53 AM51.1 °F30.0 °F44 %30.22 in10.0 miWSW (240°)10.4 mph16.1 mphClear
12:53 PM53.1 °F30.9 °F43 %30.19 in10.0 miWSW (250°)11.5 mph18.4 mphClear
1:53 PM54.0 °F34.0 °F47 %30.18 in10.0 miSSW (210°)12.7 mphClear
2:53 PM55.0 °F30.0 °F38 %30.17 in10.0 miWSW (250°)10.4 mph18.4 mphClear
3:53 PM55.0 °F30.0 °F38 %30.15 in10.0 miSW (230°)10.4 mph21.9 mphClear
4:53 PM54.0 °F30.0 °F40 %30.16 in10.0 miSW (220°)11.5 mphClear
5:53 PM50.0 °F30.9 °F48 %30.16 in10.0 miSW (220°)9.2 mphClear
6:53 PM45.0 °F34.0 °F65 %30.17 in10.0 miSW (220°)5.8 mphClear
7:53 PM43.0 °F33.1 °F68 %30.19 in10.0 miSSW (210°)6.9 mphClear
8:53 PM44.1 °F32.0 °F63 %30.22 in10.0 miSW (220°)8.1 mphClear
9:53 PM44.1 °F33.1 °F65 %30.22 in10.0 miSSW (210°)10.4 mphClear
10:53 PM45.0 °F32.0 °F60 %30.23 in10.0 miSW (220°)6.9 mphClear
Hourly data recorded from KGWO, located miles away from Lexington, Mississippi







STORIES FROM OUR PARTNERS